Wind_Speed
26 26 27 28 30 32 34 35 38 36 35 32 33 34 34 33 34 36 39 43 46 47 49 50 50 50 51 50 50 50 49 48 47 46 45 44 43 41 40 39 38 38 37 36
26 27 27 28 29 31 33 34 36 38 36 33 32 31 33 33 32 34 37 41 44 45 47 48 49 49 49 49 48 48 48 47 45 45 45 44 42 41 40 39 37 37 36 35
25 26 27 26 28 31 31 33 36 39 36 35 34 31 31 32 32 34 36 39 41 42 44 46 47 47 48 48 47 46 45 45 44 42 42 42 41 40 39 37 36 35 34 34
24 25 26 24 26 28 29 32 36 38 38 37 36 34 32 32 32 33 35 39 40 40 42 44 45 46 45 46 45 44 42 42 41 40 39 38 38 37 37 36 35 34 34 33
22 23 24 23 25 27 28 29 34 38 39 39 38 36 34 33 34 35 37 39 41 40 40 42 43 43 44 43 43 42 40 39 38 38 37 37 36 35 35 35 34 34 33 33
22 23 23 22 24 27 29 29 32 34 37 39 39 38 35 35 35 35 38 39 40 41 40 40 40 40 41 41 40 39 38 37 37 36 36 35 35 34 34 33 32 32 32 31
21 23 23 22 24 27 27 29 32 32 34 37 38 38 36 35 36 37 38 40 40 40 39 39 39 39 39 38 37 37 36 36 35 35 34 34 33 33 32 31 31 31 30 30
22 23 22 22 25 27 27 29 31 32 33 35 37 37 36 35 36 38 38 38 39 40 40 39 39 38 38 37 36 35 35 34 34 33 33 32 32 31 30 29 29 29 28 28
23 22 23 25 26 27 28 29 31 32 34 35 36 37 38 36 37 39 39 39 39 40 40 39 38 37 36 35 34 33 33 32 32 31 31 30 30 29 28 28 28 27 27 27
25 24 25 27 28 28 29 30 30 31 32 35 35 36 37 38 37 39 40 41 40 40 39 38 37 35 34 34 33 32 31 31 30 30 29 28 27 27 27 26 26 26 26 26
27 26 27 28 30 30 30 31 32 31 31 33 35 35 36 37 38 40 41 41 40 40 39 38 37 35 34 33 32 31 30 30 29 28 27 26 26 26 25 25 25 25 25 25
28 27 29 29 31 31 31 30 32 31 31 32 33 35 36 37 38 40 40 41 41 41 40 39 38 36 34 32 31 31 30 29 28 27 26 26 25 25 24 24 24 24 24 25
28 29 29 29 30 31 32 32 32 32 32 32 33 35 36 37 37 39 40 41 41 40 39 38 38 37 35 33 32 31 30 29 28 27 26 25 25 24 23 23 23 23 24 25
27 30 30 30 30 31 32 32 32 32 32 33 34 35 36 38 38 38 40 41 41 40 39 38 37 36 35 34 32 31 30 29 28 27 25 25 24 24 24 23 24 24 24 25
26 29 28 28 29 30 32 32 33 33 32 33 33 34 36 38 39 38 39 40 40 39 39 38 37 36 35 34 33 31 30 29 28 26 25 25 24 24 24 24 24 24 24 25
24 26 26 26 27 29 32 33 33 33 33 33 33 34 36 37 38 38 39 39 39 38 38 38 37 36 35 34 33 32 30 29 28 27 25 25 25 24 24 24 23 23 23 24
22 23 24 25 27 29 31 32 33 34 34 33 34 34 35 37 38 38 39 39 39 39 38 38 37 37 36 34 33 32 30 29 27 26 25 25 25 24 23 23 22 22 23 23
22 22 23 23 24 27 30 32 33 34 34 34 35 35 35 36 37 39 39 39 40 39 38 37 37 36 36 34 33 31 30 28 27 25 24 24 24 23 23 22 22 22 22 22
20 21 21 22 24 27 29 31 33 34 34 36 37 36 35 36 37 38 39 40 40 38 37 37 37 36 35 34 32 31 30 28 26 25 24 24 23 23 22 22 22 22 22 22
21 21 21 20 23 27 28 30 32 33 35 36 37 36 35 35 36 36 37 38 39 39 39 38 36 35 34 33 32 31 29 27 26 25 24 23 23 23 22 22 22 21 21 22
22 23 22 22 24 27 28 29 30 32 34 36 37 36 35 35 35 35 35 36 37 38 38 37 35 34 33 32 31 30 29 28 27 25 24 23 23 22 22 22 21 21 21 22
23 23 22 23 25 27 29 29 30 32 33 35 36 36 35 35 34 34 35 35 35 35 35 35 34 33 32 31 30 29 28 27 26 25 24 23 22 22 22 21 21 21 21 22
24 23 22 23 25 28 29 30 31 32 33 34 35 36 36 35 34 33 34 35 34 34 34 34 33 32 31 30 29 28 27 25 24 23 22 22 22 21 21 21 20 21 21 22
24 24 23 23 25 27 29 31 31 32 33 34 35 36 36 36 35 35 35 35 34 33 33 33 33 32 31 29 28 27 25 24 23 22 21 21 21 20 20 20 20 21 22 23
23 22 23 25 26 28 29 30 32 33 33 34 35 36 36 36 36 35 35 35 34 32 32 33 33 31 30 28 27 26 24 23 22 21 21 20 20 20 20 20 20 21 22 23
20 21 22 24 26 28 30 32 32 33 34 34 35 36 36 36 36 35 35 35 34 33 32 31 31 30 28 28 27 26 25 23 22 21 20 20 20 20 21 21 21 22 23 24
20 21 22 23 26 28 31 32 32 33 35 35 35 36 36 37 36 36 35 35 33 33 32 31 31 29 28 27 26 25 23 22 22 21 20 20 20 20 20 21 21 22 24 25
Wind_Direction
242 240 238 233 230 229 230 229 226 222 223 222 224 227 228 227 226 223 223 221 221 222 223 224 225 227 229 230 232 233 235 237 239 240 241 243 246 248 251 253 256 258 261 263
242 241 241 236 230 229 230 229 225 223 223 221 223 227 228 226 224 221 220 220 220 220 221 223 224 225 228 229 230 232 234 235 237 238 240 242 244 247 250 253 255 256 259 263
245 242 242 237 233 232 229 225 224 224 222 221 221 222 224 224 222 220 218 216 218 218 219 221 222 224 226 227 229 231 233 233 235 237 239 241 243 245 248 250 253 255 258 262
249 244 243 237 233 231 227 224 223 223 221 221 221 223 222 218 218 216 214 213 215 216 217 218 220 221 223 225 227 229 230 232 234 236 238 240 242 244 246 249 252 254 258 261
253 248 243 235 232 230 227 223 221 222 223 221 219 220 221 216 215 214 212 211 211 213 215 216 218 221 222 224 225 227 229 231 233 235 238 240 241 243 245 247 250 254 258 261
253 249 245 234 228 228 227 226 221 220 220 220 218 218 216 215 214 214 211 210 211 211 213 214 217 220 221 222 223 225 227 229 231 234 236 239 241 243 245 247 250 253 257 260
254 250 243 233 224 226 229 226 225 222 220 220 218 218 217 214 213 214 212 211 212 211 211 212 215 217 218 219 221 223 225 227 230 232 234 236 239 241 244 247 250 253 257 260
252 248 242 234 226 225 227 227 227 226 223 222 220 218 215 213 212 211 210 210 211 212 212 212 214 216 218 219 220 221 223 225 227 230 232 235 237 241 244 247 250 253 256 260
248 244 238 234 230 224 224 225 226 226 224 222 220 219 216 213 212 211 208 207 209 211 212 213 214 216 216 217 219 220 221 224 227 229 231 233 237 240 244 247 250 253 256 260
247 241 237 234 232 227 224 224 224 224 223 222 220 219 217 214 210 208 207 207 208 209 211 212 214 215 215 216 218 219 221 223 226 228 231 233 236 240 243 247 251 254 257 261
247 242 240 236 234 231 227 224 222 221 220 220 221 219 216 215 212 209 209 208 209 211 211 213 214 215 215 216 218 219 221 222 225 228 230 233 236 240 244 247 250 254 258 262
245 242 241 236 233 230 227 223 220 220 219 218 217 217 216 215 212 210 209 209 210 211 212 212 214 214 214 216 218 220 221 223 225 227 230 234 237 240 244 248 251 255 259 264
245 241 240 236 233 230 227 223 220 219 218 216 214 212 212 212 211 210 209 209 210 210 210 211 213 213 214 216 218 219 221 223 225 227 230 233 237 241 246 250 253 257 261 266
247 242 240 237 234 230 227 223 221 218 215 214 211 208 208 208 209 209 209 209 209 210 210 210 211 211 213 215 217 218 220 222 225 227 230 234 239 243 248 252 256 260 264 269
247 242 239 237 235 232 228 224 221 217 215 212 210 208 206 205 206 207 207 207 207 208 209 209 210 212 212 213 215 217 220 223 224 227 231 235 240 245 249 253 258 263 268 272
248 243 240 238 236 232 227 223 218 215 212 210 209 208 205 204 205 207 206 206 207 208 208 208 210 212 212 212 214 217 219 222 225 227 231 237 241 245 250 255 261 265 270 275
250 245 241 238 235 230 224 219 215 213 210 209 208 207 205 205 205 206 205 205 206 206 207 207 209 211 212 213 216 218 221 224 226 228 233 238 242 247 252 257 262 267 272 277
251 246 240 236 231 225 219 214 211 209 208 207 206 205 206 206 205 205 204 205 205 206 206 206 208 211 213 215 217 220 221 224 228 231 235 239 244 249 252 257 263 268 273 277
248 244 241 237 228 220 215 212 210 208 206 206 205 204 204 205 205 204 204 205 204 205 206 208 210 210 213 215 218 220 222 225 229 231 235 241 245 248 253 258 264 268 273 279
245 242 240 236 227 217 212 211 210 206 204 205 203 202 203 203 203 203 203 203 202 204 206 208 210 212 214 217 218 219 222 224 227 230 236 241 244 248 254 260 264 268 273 279
246 240 236 231 224 216 212 210 208 204 202 202 202 202 202 201 201 201 200 199 200 202 203 205 208 211 214 216 218 219 221 222 226 230 235 241 244 249 255 261 264 268 274 280
246 240 235 230 223 216 213 211 206 202 201 201 202 201 200 198 197 198 198 197 198 200 202 204 206 209 212 214 216 217 220 224 227 231 237 241 244 249 255 260 263 269 276 282
242 238 234 228 221 215 212 208 205 203 201 201 201 200 198 196 196 196 196 196 198 199 201 203 205 207 211 213 214 217 219 222 226 231 236 239 244 250 255 260 265 272 279 285
239 237 234 227 218 213 208 205 203 202 200 199 199 198 197 196 196 196 196 196 197 200 202 203 204 207 209 211 213 215 218 223 227 231 235 240 246 251 257 263 270 276 281 287
236 232 225 220 216 210 205 202 202 200 199 197 196 196 196 196 195 195 195 196 197 198 200 202 202 203 205 208 211 215 218 222 226 231 236 243 250 254 260 267 273 280 285 289
229 220 214 213 210 205 201 200 199 198 196 196 194 194 194 194 193 193 193 194 196 198 199 200 202 203 206 210 213 217 220 223 228 234 241 247 253 259 264 271 277 281 286 291
216 210 207 206 204 201 198 197 196 195 194 193 193 192 193 192 192 192 193 194 197 198 199 201 203 206 210 213 215 218 221 225 231 238 244 251 257 262 267 273 279 284 289 294
Height
5458 5460 5463 5467 5472 5476 5480 5486 5493 5501 5507 5513 5518 5524 5531 5538 5544 5551 5558 5566 5574 5583 5591 5600 5608 5617 5625 5633 5640 5646 5653 5659 5665 5671 5675 5679 5684 5687 5690 5693 5695 5697 5698 5699
5452 5455 5457 5461 5466 5470 5475 5481 5487 5494 5500 5507 5512 5518 5524 5530 5537 5544 5550 5558 5566 5574 5582 5591 5599 5607 5615 5623 5630 5637 5643 5650 5655 5661 5666 5670 5674 5678 5681 5683 5686 5688 5689 5691
5447 5449 5451 5457 5462 5465 5469 5475 5481 5486 5495 5500 5505 5511 5516 5523 5529 5536 5543 5550 5558 5566 5574 5582 5590 5598 5606 5613 5620 5627 5634 5640 5646 5651 5656 5661 5665 5669 5672 5675 5677 5679 5681 5682
5441 5444 5447 5455 5456 5459 5463 5468 5473 5479 5485 5491 5498 5503 5509 5515 5522 5528 5536 5544 5551 5559 5567 5574 5582 5589 5597 5604 5611 5618 5625 5631 5637 5642 5647 5652 5656 5660 5663 5666 5669 5671 5673 5674
5436 5437 5441 5447 5449 5452 5456 5460 5466 5472 5478 5484 5490 5496 5502 5509 5515 5522 5529 5536 5544 5552 5560 5567 5574 5581 5589 5596 5603 5610 5616 5623 5629 5634 5639 5643 5647 5651 5655 5658 5660 5663 5664 5666
5430 5431 5435 5441 5443 5445 5450 5454 5459 5464 5470 5476 5482 5490 5497 5502 5509 5515 5522 5529 5537 5545 5553 5560 5567 5574 5581 5588 5595 5602 5609 5615 5621 5626 5631 5635 5639 5643 5646 5649 5652 5654 5656 5657
5425 5425 5429 5434 5437 5440 5446 5449 5453 5458 5463 5469 5475 5483 5490 5496 5503 5510 5516 5523 5531 5538 5546 5554 5561 5568 5575 5582 5588 5595 5601 5607 5613 5618 5623 5627 5631 5635 5639 5642 5644 5646 5648 5649
5419 5420 5427 5428 5430 5434 5437 5441 5446 5451 5457 5463 5469 5476 5483 5490 5496 5503 5510 5517 5525 5532 5540 5547 5555 5562 5569 5576 5582 5588 5594 5600 5605 5610 5615 5620 5624 5627 5631 5634 5636 5638 5640 5641
5413 5417 5419 5420 5423 5427 5430 5435 5439 5444 5450 5456 5462 5469 5476 5483 5490 5497 5504 5511 5519 5527 5534 5542 5549 5556 5563 5569 5576 5582 5588 5593 5598 5603 5608 5612 5616 5620 5623 5626 5629 5631 5633 5634
5406 5409 5412 5414 5416 5420 5424 5428 5432 5438 5443 5449 5455 5462 5469 5476 5483 5490 5497 5505 5513 5521 5528 5536 5543 5550 5557 5563 5570 5576 5581 5587 5592 5597 5601 5606 5610 5613 5617 5619 5622 5623 5625 5626
5398 5402 5404 5407 5410 5413 5417 5421 5426 5431 5436 5442 5449 5455 5462 5469 5476 5484 5491 5499 5507 5515 5523 5530 5537 5544 5551 5558 5564 5570 5575 5581 5586 5591 5595 5599 5603 5607 5610 5612 5614 5616 5618 5619
5391 5395 5396 5400 5403 5406 5410 5414 5420 5425 5430 5436 5442 5449 5456 5463 5470 5477 5485 5493 5501 5509 5517 5524 5531 5539 5546 5552 5558 5564 5570 5575 5580 5585 5589 5593 5597 5600 5602 5605 5607 5609 5611 5612
5384 5386 5388 5392 5395 5399 5403 5408 5413 5418 5424 5429 5435 5442 5449 5456 5464 5471 5479 5487 5495 5503 5511 5519 5526 5533 5540 5546 5552 5558 5564 5569 5574 5579 5583 5587 5591 5594 5596 5599 5600 5602 5603 5604
5376 5378 5381 5385 5388 5392 5396 5401 5406 5412 5417 5423 5429 5436 5443 5450 5458 5466 5474 5482 5490 5498 5506 5513 5520 5527 5534 5540 5546 5552 5557 5563 5568 5573 5577 5581 5584 5587 5590 5592 5594 5595 5596 5596
5369 5370 5374 5377 5381 5384 5389 5394 5399 5405 5411 5417 5423 5430 5437 5445 5452 5460 5468 5476 5484 5492 5500 5507 5514 5521 5528 5534 5540 5546 5552 5557 5562 5567 5571 5574 5578 5581 5583 5585 5587 5588 5588 5589
5363 5364 5367 5371 5374 5378 5382 5387 5393 5399 5405 5411 5418 5425 5432 5440 5447 5455 5463 5470 5478 5486 5494 5502 5509 5515 5522 5528 5535 5540 5546 5551 5556 5561 5565 5568 5572 5574 5576 5578 5579 5580 5581 5581
5357 5359 5361 5364 5368 5371 5375 5381 5386 5393 5399 5406 5413 5419 5427 5434 5442 5450 5457 5465 5473 5481 5489 5496 5503 5510 5517 5523 5529 5535 5540 5545 5550 5555 5559 5562 5565 5567 5570 5571 5573 5573 5574 5574
5351 5353 5355 5358 5361 5364 5369 5375 5381 5387 5394 5401 5408 5415 5422 5429 5437 5444 5452 5460 5467 5475 5483 5490 5498 5505 5511 5517 5523 5529 5534 5540 5544 5548 5552 5555 5558 5561 5563 5565 5566 5566 5567 5567
5345 5347 5350 5352 5355 5359 5364 5370 5376 5382 5388 5395 5403 5410 5417 5425 5432 5439 5447 5455 5462 5470 5478 5485 5492 5499 5505 5511 5517 5523 5529 5534 5538 5542 5546 5549 5552 5554 5556 5558 5559 5559 5560 5560
5339 5341 5344 5347 5350 5354 5359 5365 5371 5377 5383 5390 5398 5405 5412 5420 5427 5434 5442 5449 5457 5465 5472 5479 5486 5493 5499 5505 5511 5517 5523 5528 5532 5536 5540 5543 5546 5548 5550 5551 5552 5552 5553 5553
5333 5335 5338 5341 5345 5350 5355 5360 5366 5372 5379 5386 5393 5401 5408 5415 5423 5430 5437 5444 5452 5459 5467 5474 5481 5488 5494 5500 5506 5512 5517 5522 5526 5530 5534 5537 5539 5541 5543 5544 5545 5546 5546 5546
5326 5329 5332 5336 5340 5345 5350 5356 5362 5368 5375 5381 5389 5396 5404 5411 5419 5426 5433 5440 5448 5455 5462 5469 5476 5483 5489 5495 5501 5506 5511 5516 5520 5524 5528 5530 5533 5535 5537 5538 5538 5539 5539 5539
5319 5323 5326 5329 5334 5339 5345 5351 5357 5364 5371 5377 5385 5392 5400 5407 5415 5422 5429 5437 5444 5451 5458 5465 5472 5479 5485 5490 5496 5501 5506 5511 5515 5518 5522 5524 5527 5529 5530 5531 5532 5532 5532 5532
5313 5316 5319 5324 5328 5334 5340 5347 5353 5359 5366 5373 5381 5388 5396 5404 5411 5418 5426 5433 5440 5447 5454 5461 5467 5474 5480 5486 5491 5496 5501 5505 5509 5513 5516 5518 5520 5522 5523 5524 5525 5525 5525 5525
5307 5310 5314 5318 5324 5329 5335 5342 5348 5355 5362 5370 5377 5385 5392 5400 5408 5415 5422 5430 5437 5444 5450 5457 5463 5470 5476 5481 5487 5492 5496 5500 5504 5507 5510 5512 5514 5516 5517 5518 5518 5519 5518 5517
5301 5304 5309 5314 5319 5324 5331 5338 5345 5352 5359 5366 5374 5381 5389 5397 5404 5412 5419 5427 5434 5441 5447 5453 5460 5466 5471 5477 5482 5487 5491 5495 5498 5501 5504 5506 5508 5509 5510 5511 5512 5512 5511 5510
5296 5300 5305 5310 5315 5320 5327 5334 5341 5348 5356 5363 5371 5379 5386 5394 5401 5408 5416 5423 5430 5437 5444 5450 5456 5462 5467 5472 5477 5482 5486 5489 5493 5495 5498 5500 5502 5503 5504 5504 5505 5504 5503 5502